Home   Weather   Ruidoso   Past weeks
Flag for USA

Past Weather in Ruidoso, New Mexico, USA — Yesterday and Last 2 Weeks

Now
50 °F

Sunny.


Feels Like: 48 °F
Forecast: 69 / 45 °F
Wind: 5 mph from West

Location: Ruidoso Regional

Current Time: Apr 25, 2019 at 8:10:45 am

Latest Report: Apr 25, 2019 at 7:15 am


Visibility: 10 mi

Pressure: 30.15 "Hg (23.54 "Hg at 2051m altitude)

Humidity: 50%

Dew Point: 32 °F

Location of RuidosoLocation

Past Weather in Ruidoso — Graph

°F

Ruidoso Temperature Yesterday

Maximum temperature yesterday: 63 °F (at 4:15 pm)
Minimum temperature yesterday: 36 °F (at 5:15 am)
Average temperature yesterday: 50 °F

High & Low Weather Summary for the Past Weeks

 TemperatureHumidityPressure
High75 °F (Apr 20, 12:15 pm)100% (Apr 13, 1:35 am)30.36 "Hg (Apr 13, 1:35 am)
Low30 °F (Apr 13, 3:35 am)7% (Apr 10, 3:15 pm)29.61 "Hg (Apr 10, 3:35 pm)
Average51 °F43%30.04 "Hg
* Reported Apr 10 6:15 am — Apr 25 6:55 am, Ruidoso. Weather by CustomWeather, © 2019

Note: Actual official high and low records may vary slightly from our data, if they occured in-between our weather recording intervals... More about our weather records

Advertising

Ruidoso Weather History for the Previous 24 Hours

Scroll right to see more
 ConditionsComfort  
Time TempWeatherWind HumidityBarometerVisibility
6:55 am
Thu, Apr 25
50 °FSunny.6 mph50%30.15 "Hg10 mi
5:55 am48 °FClear.9 mph54%30.12 "Hg10 mi
5:35 am48 °FClear.9 mph54%30.12 "Hg10 mi
5:15 am48 °FClear.8 mph54%30.12 "Hg10 mi
4:55 am48 °FClear.9 mph54%30.11 "Hg10 mi
4:35 am50 °FClear.7 mph50%30.11 "Hg10 mi
4:15 am50 °FClear.7 mph50%30.11 "Hg10 mi
3:55 am50 °FClear.9 mph50%30.11 "Hg10 mi
3:35 am50 °FClear.9 mph50%30.10 "Hg10 mi
3:15 am46 °FClear.8 mph57%30.10 "Hg10 mi
2:55 am48 °FClear.9 mph54%30.10 "Hg10 mi
2:35 am48 °FClear.8 mph54%30.10 "Hg10 mi
2:15 am48 °FClear.7 mph54%30.10 "Hg10 mi
1:35 am48 °FClear.5 mph54%30.11 "Hg10 mi
1:15 am46 °FClear.6 mph57%30.11 "Hg10 mi
12:55 am48 °FClear.7 mph54%30.11 "Hg10 mi
11:55 pm
Wed, Apr 24
54 °FClear.5 mph44%30.11 "Hg10 mi
11:35 pm54 °FClear.5 mph44%30.10 "Hg10 mi
11:15 pm50 °FPassing clouds.7 mph50%30.10 "Hg10 mi
10:55 pm52 °FPassing clouds.9 mph47%30.10 "Hg10 mi
10:35 pm52 °FPassing clouds.9 mph47%30.10 "Hg10 mi
10:15 pm52 °FPassing clouds.10 mph47%30.10 "Hg10 mi
9:55 pm52 °FOvercast.9 mph47%30.10 "Hg10 mi
9:35 pm54 °FMostly cloudy.8 mph44%30.10 "Hg10 mi
9:15 pm54 °FMostly cloudy.6 mph44%30.10 "Hg10 mi
8:55 pm54 °FMostly cloudy.6 mph44%30.10 "Hg10 mi
8:35 pm54 °FMostly cloudy.5 mph44%30.10 "Hg10 mi
8:15 pm55 °FMostly cloudy.3 mph41%30.10 "Hg10 mi
7:55 pm57 °FOvercast.6 mph39%30.09 "Hg10 mi
7:35 pm57 °FOvercast.6 mph39%30.08 "Hg10 mi
7:15 pm57 °FOvercast.7 mph39%30.08 "Hg10 mi
6:55 pm59 °FPartly sunny.8 mph34%30.07 "Hg10 mi
6:35 pm59 °FScattered clouds.9 mph31%30.07 "Hg10 mi
6:15 pm59 °FPassing clouds.13 mph31%30.07 "Hg10 mi
5:55 pm63 °FPassing clouds.9 mph25%30.06 "Hg10 mi
5:35 pm63 °FSunny.13 mph27%30.06 "Hg10 mi
5:15 pm63 °FPassing clouds.10 mph27%30.06 "Hg10 mi
4:55 pm63 °FBroken clouds.13 mph32%30.05 "Hg10 mi
4:35 pm63 °FPassing clouds.13 mph27%30.05 "Hg10 mi
4:15 pm63 °FPassing clouds.12 mph32%30.05 "Hg10 mi
3:55 pm59 °FSunny.12 mph36%30.05 "Hg10 mi
3:35 pm57 °FBroken clouds.12 mph39%30.05 "Hg10 mi
3:15 pm59 °FPartly sunny.10 mph42%30.06 "Hg10 mi
2:55 pm57 °FMostly cloudy.7 mph44%30.06 "Hg10 mi
2:35 pm59 °FPartly sunny.9 mph45%30.07 "Hg10 mi
2:15 pm59 °FScattered clouds.10 mph45%30.07 "Hg10 mi
1:35 pm57 °FBroken clouds.8 mph48%30.08 "Hg10 mi
12:55 pm57 °FBroken clouds.7 mph51%30.08 "Hg10 mi
12:35 pm57 °FPassing clouds.7 mph48%30.09 "Hg10 mi
12:15 pm57 °FPassing clouds.14 mph48%30.09 "Hg10 mi
11:55 am57 °FPassing clouds.13 mph51%30.09 "Hg10 mi
11:35 am55 °FScattered clouds.7 mph51%30.10 "Hg10 mi
11:15 am54 °FPartly sunny.13 mph54%30.10 "Hg10 mi
10:55 am54 °FPartly sunny.7 mph54%30.11 "Hg10 mi
10:35 am52 °FPartly sunny.8 mph58%30.10 "Hg10 mi
10:15 am50 °FScattered clouds.7 mph62%30.10 "Hg10 mi
9:55 am52 °FPartly sunny.10 mph58%30.10 "Hg10 mi
9:35 am50 °FPassing clouds.10 mph62%30.10 "Hg10 mi
9:15 am50 °FSunny.12 mph62%30.09 "Hg10 mi
8:55 am46 °FSunny.16 mph76%30.08 "Hg10 mi
8:35 am45 °FSunny.10 mph100%30.09 "Hg10 mi
8:15 am39 °FSunny.9 mph100%30.09 "Hg10 mi
Weather by CustomWeather, © 2019

See weather overview